| time (UTC) | temp F | wind direction | speed MPH | gust MPH | rain 1hr in | rain 24hr in | rain mn in | humidity % | barometer mb |
| 20260505010017 | 58 | 248 | 2.0 | 6.0 | 0.00 | 0.00 | 0.00 | 59 | 1008.7 |
| 20260505005016 | 58 | 248 | 1.0 | 4.0 | 0.00 | 0.00 | 0.00 | 58 | 1008.6 |
| 20260505004016 | 59 | 225 | 2.0 | 8.0 | 0.00 | 0.00 | 0.00 | 57 | 1008.3 |
| 20260505003016 | 59 | 248 | 1.0 | 4.0 | 0.00 | 0.00 | 0.00 | 56 | 1008.2 |
| 20260505002016 | 60 | 248 | 2.0 | 6.0 | 0.00 | 0.00 | 0.00 | 55 | 1008.1 |
| 20260505001016 | 60 | 248 | 2.0 | 5.0 | 0.00 | 0.00 | 0.00 | 54 | 1007.8 |
| 20260505000037 | 61 | 225 | 2.0 | 6.0 | 0.00 | 0.00 | 0.00 | 53 | 1007.6 |
| 20260504235037 | 61 | 248 | 1.0 | 5.0 | 0.00 | 0.00 | 0.00 | 52 | 1007.5 |
| 20260504234036 | 62 | 270 | 1.0 | 5.0 | 0.00 | 0.00 | 0.00 | 50 | 1007.3 |
| 20260504233016 | 64 | 203 | 2.0 | 10.0 | 0.00 | 0.00 | 0.00 | 45 | 1007.2 |
| 20260504232017 | 65 | 248 | 1.0 | 4.0 | 0.00 | 0.00 | 0.00 | 41 | 1006.9 |
| 20260504231016 | 65 | 0.0 | 1.0 | 0.00 | 0.00 | 0.00 | 40 | 1006.8 | |
| 20260504230016 | 65 | 225 | 2.0 | 10.0 | 0.00 | 0.00 | 0.00 | 40 | 1006.7 |
| 20260504225016 | 66 | 248 | 2.0 | 7.0 | 0.00 | 0.00 | 0.00 | 39 | 1006.7 |
| 20260504224016 | 66 | 248 | 3.0 | 15.0 | 0.00 | 0.00 | 0.00 | 39 | 1006.6 |
| 20260504223016 | 66 | 248 | 2.0 | 6.0 | 0.00 | 0.00 | 0.00 | 39 | 1006.6 |
| 20260504222016 | 66 | 248 | 3.0 | 8.0 | 0.00 | 0.00 | 0.00 | 38 | 1006.7 |
| 20260504221017 | 67 | 225 | 3.0 | 11.0 | 0.00 | 0.00 | 0.00 | 38 | 1006.7 |
| 20260504220016 | 67 | 248 | 1.0 | 5.0 | 0.00 | 0.00 | 0.00 | 38 | 1006.7 |
| 20260504215016 | 67 | 248 | 3.0 | 7.0 | 0.00 | 0.00 | 0.00 | 38 | 1006.9 |
| 20260504214016 | 68 | 225 | 2.0 | 5.0 | 0.00 | 0.00 | 0.00 | 38 | 1006.7 |
| 20260504213016 | 68 | 248 | 2.0 | 8.0 | 0.00 | 0.00 | 0.00 | 37 | 1006.9 |
| 20260504212017 | 67 | 248 | 3.0 | 6.0 | 0.00 | 0.00 | 0.00 | 37 | 1006.9 |
| 20260504211015 | 67 | 248 | 2.0 | 8.0 | 0.00 | 0.00 | 0.00 | 38 | 1006.9 |
| 20260504210016 | 67 | 248 | 3.0 | 9.0 | 0.00 | 0.00 | 0.00 | 38 | 1007.0 |
| 20260504205015 | 68 | 248 | 3.0 | 9.0 | 0.00 | 0.00 | 0.00 | 36 | 1007.0 |
| 20260504204016 | 68 | 248 | 2.0 | 5.0 | 0.00 | 0.00 | 0.00 | 37 | 1007.0 |
| 20260504203036 | 67 | 248 | 3.0 | 11.0 | 0.00 | 0.00 | 0.00 | 37 | 1006.9 |
| 20260504202015 | 68 | 225 | 2.0 | 7.0 | 0.00 | 0.00 | 0.00 | 36 | 1007.0 |
| 20260504201016 | 69 | 248 | 2.0 | 8.0 | 0.00 | 0.00 | 0.00 | 36 | 1007.2 |
| 20260504200018 | 67 | 248 | 2.0 | 7.0 | 0.00 | 0.00 | 0.00 | 37 | 1007.2 |
| 20260504195018 | 68 | 270 | 2.0 | 6.0 | 0.00 | 0.00 | 0.00 | 36 | 1007.3 |
| 20260504194018 | 68 | 225 | 2.0 | 6.0 | 0.00 | 0.00 | 0.00 | 36 | 1007.4 |
| 20260504193038 | 68 | 248 | 4.0 | 10.0 | 0.00 | 0.00 | 0.00 | 35 | 1007.3 |
| 20260504192018 | 67 | 248 | 3.0 | 13.0 | 0.00 | 0.00 | 0.00 | 36 | 1007.2 |
| 20260504191017 | 68 | 248 | 3.0 | 10.0 | 0.00 | 0.00 | 0.00 | 38 | 1007.5 |
| 20260504190038 | 67 | 248 | 3.0 | 8.0 | 0.00 | 0.00 | 0.00 | 37 | 1007.5 |
| 20260504185058 | 66 | 248 | 4.0 | 14.0 | 0.00 | 0.00 | 0.00 | 38 | 1007.5 |
| 20260504184019 | 67 | 270 | 3.0 | 10.0 | 0.00 | 0.00 | 0.00 | 35 | 1007.6 |
| 20260504183018 | 67 | 270 | 2.0 | 7.0 | 0.00 | 0.00 | 0.00 | 36 | 1007.6 |
| 20260504182018 | 67 | 248 | 3.0 | 9.0 | 0.00 | 0.00 | 0.00 | 35 | 1007.9 |
| 20260504181017 | 66 | 248 | 3.0 | 11.0 | 0.00 | 0.00 | 0.00 | 38 | 1008.0 |
| 20260504180018 | 67 | 248 | 5.0 | 10.0 | 0.00 | 0.00 | 0.00 | 35 | 1007.9 |
| 20260504175037 | 67 | 248 | 4.0 | 8.0 | 0.00 | 0.00 | 0.00 | 37 | 1008.0 |
| 20260504174038 | 66 | 248 | 4.0 | 10.0 | 0.00 | 0.00 | 0.00 | 37 | 1007.9 |
| 20260504173018 | 66 | 248 | 3.0 | 9.0 | 0.00 | 0.00 | 0.00 | 35 | 1007.9 |
| 20260504172017 | 65 | 248 | 4.0 | 10.0 | 0.00 | 0.00 | 0.00 | 35 | 1008.0 |
| 20260504171018 | 65 | 248 | 5.0 | 10.0 | 0.00 | 0.00 | 0.00 | 35 | 1008.2 |
| 20260504151018 | 60 | 248 | 5.0 | 11.0 | 0.00 | 0.00 | 0.00 | 42 | 1009.4 |
| 20260504141037 | 57 | 248 | 1.0 | 7.0 | 0.00 | 0.00 | 0.00 | 52 | 1009.7 |
| 20260504081017 | 43 | 0.0 | 0.0 | 0.00 | 0.00 | 0.00 | 61 | 1009.7 | |
| 20260504050017 | 43 | 0.0 | 1.0 | 0.00 | 0.00 | 0.00 | 59 | 1009.8 | |
| 20260504045038 | 43 | 0.0 | 1.0 | 0.00 | 0.00 | 0.00 | 58 | 1009.9 | |
| 20260504044017 | 43 | 0.0 | 0.0 | 0.00 | 0.00 | 0.00 | 58 | 1009.8 | |
| 20260504043017 | 43 | 0.0 | 0.0 | 0.00 | 0.00 | 0.00 | 57 | 1009.8 | |
| 20260504042017 | 43 | 0.0 | 0.0 | 0.00 | 0.00 | 0.00 | 56 | 1009.9 | |
| 20260504041018 | 43 | 0.0 | 1.0 | 0.00 | 0.00 | 0.00 | 56 | 1009.8 | |
| 20260504040020 | 43 | 0.0 | 1.0 | 0.00 | 0.00 | 0.00 | 55 | 1009.9 | |
| 20260504035016 | 43 | 0.0 | 0.0 | 0.00 | 0.00 | 0.00 | 54 | 1009.7 | |
| 20260504034016 | 43 | 0.0 | 0.0 | 0.00 | 0.00 | 0.00 | 53 | 1009.5 | |
| 20260504033016 | 43 | 0.0 | 0.0 | 0.00 | 0.00 | 0.00 | 53 | 1009.4 | |
| 20260504032037 | 43 | 0.0 | 1.0 | 0.00 | 0.00 | 0.00 | 52 | 1009.4 | |
| 20260504031016 | 43 | 0.0 | 0.0 | 0.00 | 0.00 | 0.00 | 52 | 1009.3 | |
| 20260504030036 | 43 | 0.0 | 1.0 | 0.00 | 0.00 | 0.00 | 51 | 1009.3 | |
| 20260504025036 | 43 | 0.0 | 1.0 | 0.00 | 0.00 | 0.00 | 51 | 1009.2 | |
| 20260504024017 | 43 | 0.0 | 1.0 | 0.00 | 0.00 | 0.00 | 50 | 1009.3 | |
| 20260504023036 | 44 | 0.0 | 1.0 | 0.00 | 0.00 | 0.00 | 49 | 1009.3 | |
| 20260504022016 | 44 | 0.0 | 1.0 | 0.00 | 0.00 | 0.00 | 48 | 1009.2 | |
| 20260504021037 | 44 | 0.0 | 3.0 | 0.00 | 0.00 | 0.00 | 47 | 1009.1 | |
| 20260504020016 | 44 | 0.0 | 2.0 | 0.00 | 0.00 | 0.00 | 47 | 1009.0 | |
| 20260504015016 | 44 | 0.0 | 1.0 | 0.00 | 0.00 | 0.00 | 46 | 1008.8 | |
| 20260504014016 | 44 | 0.0 | 2.0 | 0.00 | 0.00 | 0.00 | 46 | 1008.7 | |
| 20260504013056 | 44 | 0.0 | 0.0 | 0.00 | 0.00 | 0.00 | 46 | 1008.6 | |
| 20260504012016 | 44 | 248 | 1.0 | 5.0 | 0.00 | 0.00 | 0.00 | 47 | 1008.5 |
| 20260504011036 | 44 | 0.0 | 2.0 | 0.00 | 0.00 | 0.00 | 49 | 1008.4 |